Dewpoint
62 60 57 52 46 42 37 30 17 17 20 16 19 16 3 14 24 15 15 26 23 49 55 58 59 57 52 52 54 59 60 55 54 52 49 57 69 68 69 70 72 72 73 73 73 73 74 74 73 73 73 73 73 73 74 73 74 73 73 73 73 73 73 73 73 73 73 72 72 72 71 71 70 70 70 70 69 69 69 69 69 69 70 70 70 69 68 68 67 67 66 67 67 67 68 68 68
59 52 43 49 43 36 33 25 22 23 17 8 9 17 14 16 15 15 13 21 39 54 59 60 60 60 60 61 61 60 58 63 63 62 65 68 68 69 70 71 71 72 73 73 73 73 73 74 73 73 74 74 73 73 73 73 73 73 73 72 72 73 73 72 72 73 72 72 72 72 72 71 70 70 70 70 71 70 70 69 69 70 70 70 70 70 70 68 67 67 66 67 67 68 68 68 68
54 45 36 40 33 31 30 25 18 21 10 8 1 14 18 15 14 14 21 17 53 58 59 58 58 58 60 59 53 55 53 63 65 66 67 68 66 68 70 71 71 72 73 73 73 73 73 73 73 73 74 73 73 73 74 73 73 73 73 73 73 72 72 72 73 72 72 72 72 72 72 72 71 71 71 71 71 71 70 70 70 70 69 69 69 69 69 69 69 68 67 67 67 68 68 68 69
48 47 32 32 32 25 25 24 21 18 10 5 10 11 16 16 9 14 48 53 57 56 55 56 57 59 57 57 58 61 62 63 66 66 66 66 67 69 70 71 72 73 73 73 73 73 73 73 73 73 74 73 73 73 73 73 73 73 73 73 73 73 72 72 72 72 72 72 72 72 72 71 71 71 71 71 71 71 71 70 70 69 68 69 69 70 70 69 68 67 68 67 68 69 68 69 69
40 45 33 28 23 26 24 25 23 19 12 18 2 5 21 20 12 27 43 45 51 53 56 57 57 59 60 60 61 57 59 66 66 67 67 68 69 70 71 72 72 72 73 73 73 73 73 73 73 73 73 74 73 73 73 73 73 73 73 73 73 73 72 72 72 72 71 71 71 71 72 72 71 71 71 71 71 71 71 70 71 70 70 70 70 70 69 69 69 68 68 68 68 69 69 69 69
31 31 36 30 28 27 20 18 20 19 13 15 14 11 16 17 18 23 30 51 48 55 56 56 56 57 60 61 62 62 64 62 66 67 68 68 69 71 71 71 71 71 72 73 73 73 73 73 73 73 73 73 73 73 73 73 73 73 73 73 72 72 72 72 71 71 71 71 71 71 71 71 71 72 72 72 71 71 72 71 71 70 70 70 70 70 69 68 69 68 68 68 69 69 68 68 68
29 24 26 23 24 25 19 18 16 18 15 15 14 14 15 17 13 16 16 50 53 55 58 57 58 59 58 60 62 65 67 67 66 67 68 68 70 70 71 71 71 71 72 73 73 72 73 73 73 73 73 74 73 73 73 73 73 73 73 73 72 72 72 72 71 71 71 71 71 71 71 71 71 71 71 72 72 72 72 71 71 70 70 70 70 69 69 69 69 69 69 67 67 68 68 68 69
42 23 27 20 21 18 18 20 19 19 16 16 17 17 17 17 16 13 12 49 49 51 57 58 58 57 57 62 58 65 68 68 68 68 68 68 69 70 70 70 70 71 72 73 73 72 73 72 73 73 73 73 73 73 73 73 73 73 73 73 73 72 72 71 71 71 71 71 71 71 70 70 71 71 72 72 72 72 71 70 70 70 70 70 69 69 69 69 69 70 70 70 70 69 68 68 68
28 24 31 17 20 22 18 13 13 16 18 16 14 21 37 26 25 19 14 31 53 56 57 57 58 53 58 62 62 65 67 68 68 68 68 68 68 69 70 69 69 70 72 72 72 72 72 72 72 73 73 73 73 73 73 73 73 73 73 73 73 72 72 72 71 71 71 71 71 71 70 70 71 71 71 71 71 71 71 70 71 70 69 69 69 70 70 69 69 69 69 69 69 68 68 68 68
25 22 19 20 20 17 16 13 16 13 15 15 14 15 14 14 16 17 16 35 54 56 57 61 59 56 62 60 62 65 66 67 67 66 66 66 68 69 69 69 70 70 71 72 72 72 72 73 72 72 72 73 73 73 73 73 72 73 73 73 72 72 72 72 71 71 71 71 71 71 71 71 71 71 71 71 71 72 71 71 70 70 70 70 70 70 70 69 68 68 68 68 68 68 68 68 68
23 20 20 18 19 15 13 9 15 14 14 14 13 13 13 12 12 12 14 43 56 57 59 61 60 60 61 61 63 67 68 66 66 65 65 65 67 69 69 70 70 71 71 72 72 72 72 72 73 72 72 72 72 72 72 72 72 72 72 72 72 72 72 72 71 71 71 71 71 71 71 71 71 71 71 71 71 71 71 71 71 70 70 70 69 69 69 69 68 68 68 68 68 68 68 68 68
18 20 15 16 16 11 13 14 13 12 15 15 12 12 12 11 17 30 48 55 57 58 58 59 58 61 60 60 63 67 67 66 65 65 64 65 67 69 69 70 70 71 71 72 72 71 72 72 71 72 72 72 72 72 72 72 72 72 72 72 72 72 72 71 71 71 71 71 71 71 71 71 71 71 71 70 71 71 71 71 71 70 70 70 70 69 69 68 68 68 68 68 68 68 68 68 68
20 18 15 13 13 12 20 12 11 30 16 8 8 10 10 11 23 42 52 56 57 57 55 58 61 60 57 60 65 66 66 66 65 64 64 65 67 68 69 69 70 71 71 71 71 71 71 71 72 72 72 72 72 72 72 72 72 72 72 72 72 72 72 71 71 71 71 71 71 71 71 71 71 71 70 70 71 70 70 70 70 70 70 70 69 70 69 69 68 68 68 68 68 69 68 68 68
23 18 16 12 15 11 12 13 10 10 7 8 9 10 10 12 15 52 57 55 55 53 55 59 61 61 61 63 64 64 65 66 65 65 65 65 66 67 67 69 70 70 71 71 71 71 71 71 71 71 71 71 71 72 72 72 72 72 72 72 72 71 71 71 71 71 71 71 71 71 71 71 71 71 71 70 70 70 70 70 70 70 70 69 69 69 69 69 68 68 68 68 68 68 68 69 68
28 23 24 18 12 11 10 9 7 6 8 11 10 9 8 23 35 45 53 54 53 55 60 60 61 56 57 60 61 64 65 66 66 66 65 65 65 65 67 68 69 70 70 70 71 71 71 71 71 71 71 72 71 71 71 71 72 72 72 72 72 71 71 72 71 71 71 71 72 71 71 71 71 71 71 70 70 70 70 70 70 70 70 70 69 69 69 69 68 68 68 68 68 68 68 68 68
28 19 20 16 11 9 9 8 11 8 8 10 10 9 10 20 31 35 40 54 56 60 59 57 60 54 58 60 61 65 66 66 67 66 65 64 64 65 66 68 69 69 69 70 70 70 71 71 71 71 71 71 72 71 70 71 71 72 72 72 72 71 72 72 71 71 71 71 71 71 71 71 71 70 70 70 70 70 71 70 70 70 70 69 69 69 69 68 68 68 68 68 68 68 69 68 68
19 20 14 14 10 10 9 9 10 9 11 10 10 9 7 11 31 54 56 59 58 58 56 57 57 60 61 61 64 66 66 67 67 65 64 63 63 63 64 65 67 67 69 69 69 70 70 71 71 71 72 72 72 71 71 71 71 71 72 72 72 71 72 72 71 72 71 71 71 71 70 69 69 69 69 69 70 70 70 70 70 70 70 69 69 69 69 68 68 68 68 68 68 68 68 67 68
19 19 16 14 13 9 17 10 12 10 9 9 10 11 8 9 48 53 55 56 57 57 58 58 61 62 62 64 66 66 66 66 66 64 63 62 62 61 62 63 65 65 67 68 69 70 70 70 71 71 71 70 71 71 71 70 71 71 70 70 71 70 71 72 71 70 71 69 71 69 68 70 68 67 68 70 68 69 70 70 70 70 70 69 69 69 69 69 68 68 68 68 69 68 67 63 64
18 21 16 11 13 13 19 17 15 10 10 11 11 11 9 8 46 41 53 53 54 54 56 58 59 62 64 65 65 65 66 66 65 64 63 61 61 60 60 62 63 65 65 67 69 69 69 69 71 71 71 71 71 71 71 70 70 70 70 70 70 71 71 71 69 70 68 68 68 68 68 68 68 68 68 69 70 70 70 70 70 69 69 69 69 69 69 69 69 69 68 68 68 66 63 62 62
18 18 14 15 14 15 16 15 12 12 13 11 11 10 9 8 13 36 51 52 53 52 54 56 57 59 63 64 65 65 66 66 65 64 63 62 61 60 59 60 62 63 64 67 68 68 69 69 70 70 70 71 71 71 71 71 70 70 70 69 69 69 68 69 68 68 67 67 67 67 67 68 67 66 70 68 69 67 68 70 70 70 69 68 68 70 69 69 68 68 67 69 66 64 62 62 62
16 15 13 12 13 12 13 13 13 13 14 12 10 10 7 8 9 51 52 51 50 52 55 56 57 60 63 64 65 65 65 65 65 64 62 60 61 61 61 61 61 62 64 67 68 67 68 69 69 69 70 70 70 71 71 71 71 71 70 70 70 70 69 69 68 66 66 66 66 67 67 68 66 65 65 66 65 65 65 65 66 67 67 66 68 66 66 66 66 65 65 65 64 63 63 62 63
12 13 14 12 12 10 10 12 13 16 12 11 9 7 7 12 48 51 49 44 44 48 51 55 58 62 64 64 65 65 65 65 62 61 62 61 60 60 62 62 63 63 65 66 67 67 68 68 69 69 69 70 70 70 70 70 71 70 70 70 70 69 69 69 68 65 65 65 66 67 67 66 66 65 64 64 64 64 64 64 65 67 68 67 68 66 66 66 65 65 65 65 65 65 63 63 63
16 16 11 11 10 9 11 11 12 12 11 9 8 9 10 14 21 40 47 39 40 45 52 55 60 63 64 65 65 65 65 64 62 61 61 60 60 61 62 62 63 63 63 65 67 68 68 68 69 69 69 69 69 70 70 70 70 70 70 70 69 68 68 68 67 65 64 65 66 67 66 66 67 65 63 63 63 63 64 63 64 66 67 68 68 67 67 67 65 65 65 65 64 65 64 63 63
15 14 13 14 10 9 11 10 11 9 9 7 10 11 7 9 5 25 44 40 35 46 57 60 61 63 64 65 65 65 64 64 62 62 63 61 61 61 62 62 63 64 63 65 67 67 68 68 68 68 68 68 69 70 70 70 70 69 70 69 69 69 68 68 67 65 64 64 66 66 67 65 66 65 64 63 63 63 63 64 64 64 65 67 68 68 67 67 65 65 65 65 65 65 64 63 62
11 11 15 12 10 10 9 8 7 9 9 9 9 7 7 9 6 36 36 39 55 58 60 61 62 63 64 64 65 64 63 62 62 62 62 61 61 61 61 62 63 64 64 65 66 67 67 68 68 68 68 68 68 69 70 70 69 69 70 69 68 69 67 67 66 65 64 64 65 66 67 65 64 64 63 62 62 63 63 64 64 64 64 66 67 67 67 67 66 65 65 65 64 64 63 63 62
10 12 12 10 10 8 7 6 5 7 8 10 9 6 7 6 14 35 31 49 57 60 60 61 61 62 63 64 64 62 62 62 61 61 61 60 60 60 61 62 64 64 64 65 65 66 67 68 68 67 67 67 68 69 69 69 69 69 69 68 68 68 66 65 65 64 63 64 65 66 66 65 64 64 63 62 62 62 63 64 64 64 63 64 66 66 66 66 66 65 64 64 64 63 63 62 62
9 9 9 10 7 6 9 6 6 8 7 8 5 8 5 14 21 14 42 57 59 60 60 61 61 61 62 63 63 62 62 62 61 61 61 60 60 60 60 62 64 64 65 65 65 66 66 67 67 67 67 68 68 69 69 69 69 68 68 68 68 68 66 65 64 64 64 64 65 65 65 66 64 64 63 63 63 63 63 63 63 63 64 64 64 65 65 65 65 65 64 64 63 63 62 62 61
11 11 14 13 12 11 8 7 6 9 4 7 4 4 7 10 18 13 38 58 59 59 59 60 60 61 61 62 62 62 62 61 61 61 60 59 59 60 60 61 64 64 65 65 65 65 66 66 67 67 67 68 67 68 69 68 68 68 68 67 67 67 65 64 63 63 65 64 64 64 64 65 66 64 63 62 63 63 63 63 63 63 64 64 64 64 64 64 64 64 65 64 64 63 62 62 62
13 19 12 12 7 4 6 5 7 5 5 7 5 4 3 7 10 11 43 59 59 59 59 59 60 60 61 61 60 61 61 59 60 60 60 60 59 60 60 62 64 64 65 65 65 65 65 66 67 66 67 67 67 67 68 68 68 68 67 66 66 66 65 63 62 62 63 63 63 64 64 64 65 64 63 64 64 63 63 63 63 63 63 64 64 64 64 63 64 64 63 63 62 62 62 62 62
13 11 12 7 7 5 4 9 9 6 7 6 4 4 7 6 7 9 53 58 59 58 58 59 59 60 60 59 59 60 59 58 59 60 60 60 60 61 62 63 64 64 64 64 64 65 65 65 66 66 67 67 66 67 66 67 67 66 65 64 66 64 63 63 63 62 63 63 63 63 63 64 64 64 63 63 63 62 63 63 62 63 63 63 63 64 63 63 63 62 62 62 64 61 61 62 62
10 13 11 11 6 8 5 9 9 6 9 5 7 9 7 7 6 7 42 59 58 58 58 58 59 59 59 59 59 59 59 59 59 59 59 60 61 62 62 63 63 63 63 63 64 64 65 64 65 65 66 66 67 66 67 65 64 65 64 62 63 63 62 62 62 63 64 64 63 63 63 65 65 64 63 63 62 62 62 62 61 64 64 63 63 63 63 62 62 62 62 61 61 61 61 62 62
16 8 10 17 5 9 9 19 12 4 7 8 6 13 8 6 6 7 54 58 58 57 58 58 58 59 59 59 59 59 58 58 58 59 59 60 61 62 60 59 60 59 61 63 64 64 64 64 65 65 65 65 65 65 65 64 64 63 62 64 61 62 62 62 63 63 64 64 63 62 63 65 63 63 63 62 62 62 62 61 61 63 64 63 62 62 62 61 61 61 61 61 61 61 61 60 60
20 10 18 11 16 13 13 8 10 10 9 7 5 6 9 5 7 22 57 58 57 57 58 58 58 58 58 58 58 58 57 57 58 58 59 60 61 60 60 60 60 59 60 61 63 63 62 63 65 64 64 64 63 64 63 62 61 61 62 61 61 61 61 61 62 62 63 63 63 62 64 65 63 62 62 62 62 61 61 61 62 63 63 62 62 62 61 61 61 61 60 61 61 61 60 60 60
16 20 10 20 12 15 15 15 16 10 6 4 6 4 10 9 13 39 54 57 56 56 57 57 58 58 58 58 58 58 57 57 57 58 58 59 60 60 60 60 60 60 60 60 61 62 61 62 63 63 62 62 62 63 62 61 61 61 61 62 63 60 60 60 61 62 62 62 62 62 63 64 63 62 62 62 61 62 61 62 63 63 62 62 61 60 60 60 60 61 60 60 61 60 60 60 60
12 14 16 16 21 16 15 14 16 9 8 7 8 8 8 8 11 38 55 56 56 56 57 57 58 58 58 57 57 57 57 56 57 58 59 59 60 60 59 60 60 60 60 60 60 60 60 60 61 61 59 60 60 61 60 59 59 59 58 59 59 58 60 60 61 61 61 61 61 61 63 63 63 61 62 62 62 64 63 63 63 62 61 61 61 60 60 60 60 59 60 60 60 60 60 60 60
15 15 15 17 15 15 15 16 16 15 16 6 7 7 6 9 11 28 50 55 56 55 55 55 57 58 57 57 57 56 56 56 57 57 59 59 60 60 59 59 59 59 59 60 60 60 58 58 58 58 58 59 59 59 59 59 59 59 59 58 58 58 57 60 58 59 59 59 61 62 62 62 63 62 62 61 62 63 63 63 63 62 62 61 60 60 59 59 59 60 60 60 60 61 61 60 60
15 18 17 16 16 16 17 17 18 17 16 15 11 11 11 10 11 25 49 52 52 53 54 55 56 57 57 56 56 56 56 56 56 57 58 59 59 60 59 59 58 59 59 59 59 58 57 57 57 56 56 57 58 57 58 59 58 56 56 57 56 54 56 55 56 55 57 59 60 61 62 61 61 62 62 61 62 64 63 63 63 62 62 61 60 59 59 59 59 60 60 60 60 59 60 60 60
18 18 17 16 17 16 16 14 17 26 20 14 17 13 13 12 15 26 46 52 52 53 53 54 56 56 56 56 56 55 55 54 56 56 57 58 58 59 58 58 58 58 58 58 57 56 56 56 55 55 55 56 57 58 59 58 56 57 57 56 54 54 54 56 56 54 56 57 57 59 61 60 60 62 62 62 62 63 63 63 62 62 62 61 60 60 60 61 60 60 60 60 60 59 59 60 60
26 19 21 18 16 16 15 18 25 27 21 16 16 10 13 15 25 26 47 51 52 53 54 55 56 56 56 56 55 55 53 53 55 56 56 56 57 57 57 57 58 58 57 57 57 56 55 55 54 54 55 54 54 55 57 56 54 55 55 53 54 51 52 53 53 55 54 53 53 55 57 58 60 60 61 62 62 62 63 62 62 62 61 62 60 60 60 60 60 60 60 59 59 59 60 60 59
25 19 16 15 16 11 10 23 29 28 23 17 15 16 20 28 28 27 31 43 44 48 51 52 55 56 56 56 56 55 54 53 54 55 56 56 56 55 56 57 57 57 57 56 56 55 55 55 54 54 54 53 52 53 55 54 55 54 53 53 53 52 52 54 52 53 52 52 52 53 54 56 58 59 60 62 61 61 61 61 61 61 61 61 61 60 60 59 60 59 59 59 59 57 57 58 60
27 25 19 16 13 12 10 15 26 31 30 28 19 20 16 21 17 19 24 33 38 47 51 51 52 54 53 53 54 55 55 53 54 54 55 55 55 55 55 57 57 57 56 56 56 55 55 54 54 54 53 52 52 56 55 55 54 52 52 52 52 51 51 51 51 51 52 55 53 52 53 54 55 56 57 59 61 59 60 60 60 60 60 60 61 61 61 61 60 60 59 59 58 58 57 58 60
22 28 22 18 18 18 18 25 22 21 18 24 17 14 12 19 24 25 28 34 35 43 49 51 53 52 52 53 55 54 54 53 54 54 55 55 55 54 55 56 56 56 56 56 56 55 54 54 53 53 53 53 54 53 55 55 54 52 51 51 49 48 48 48 49 49 49 50 50 51 51 51 53 53 53 57 60 60 59 60 60 60 59 60 60 60 60 60 60 60 59 59 58 57 58 59 58
16 21 25 20 17 20 23 21 19 14 13 22 27 14 10 21 19 20 25 29 34 40 47 49 51 52 52 53 54 53 53 52 52 53 54 54 54 53 54 56 56 56 56 56 56 55 54 53 53 53 53 53 53 53 55 55 52 52 52 51 50 49 49 48 48 49 50 50 50 49 48 49 49 51 52 54 58 59 58 58 59 60 60 60 61 60 60 60 60 61 59 59 58 58 58 57 57
16 23 23 19 20 20 23 26 21 17 27 29 25 23 15 13 17 26 26 29 36 38 42 45 50 51 51 52 53 52 52 52 52 53 53 54 54 53 53 55 56 56 56 56 56 55 54 53 53 53 54 54 52 53 54 54 52 51 51 50 51 49 49 49 49 49 51 52 48 48 48 48 49 50 51 53 55 57 56 56 57 59 60 60 60 59 60 60 60 60 60 59 58 58 58 58 57
18 27 19 18 16 22 25 20 21 24 16 13 20 22 15 16 21 25 24 25 30 34 39 42 46 49 50 50 51 51 52 52 52 52 52 54 54 53 53 54 56 57 57 56 56 55 55 53 53 53 54 54 52 53 53 53 53 51 51 51 51 50 50 51 52 52 51 50 47 46 47 47 48 49 50 51 53 55 56 54 55 56 58 58 58 55 56 58 58 57 57 58 58 57 57 57 58
24 28 23 26 27 28 27 21 17 19 14 9 17 24 12 15 22 21 22 16 17 22 30 39 43 47 48 48 49 50 50 51 51 52 52 53 54 53 53 54 55 57 57 57 56 56 55 53 52 53 54 53 51 52 53 52 52 52 50 50 50 50 52 51 50 50 49 47 46 46 46 47 47 49 49 50 51 52 52 54 53 54 54 55 55 53 53 53 53 53 54 56 55 54 54 56 57
23 17 15 16 19 23 27 21 22 19 8 13 20 24 14 11 20 19 18 19 19 24 26 27 36 42 46 47 47 48 49 50 51 51 51 52 52 52 52 53 54 55 57 57 57 56 55 53 52 52 54 53 51 51 52 51 51 51 50 50 50 51 50 50 50 49 48 46 45 45 46 46 47 47 49 49 50 51 52 54 51 51 53 56 53 50 51 50 51 51 50 50 50 51 51 51 51
17 19 18 15 15 18 16 19 19 11 9 17 19 23 18 9 15 18 25 26 26 23 21 24 28 37 43 46 46 47 48 49 49 50 50 50 49 49 51 52 53 55 56 57 57 56 55 54 52 51 52 52 51 51 51 51 51 51 51 50 50 51 50 50 50 49 47 45 45 45 46 46 46 47 48 49 49 50 51 51 52 50 51 49 49 49 49 48 48 48 48 48 47 48 49 49 47
16 19 16 12 10 13 7 11 6 6 12 16 23 24 15 15 19 19 23 24 24 26 23 22 23 30 40 45 46 46 47 48 48 48 49 49 49 49 50 52 53 54 56 57 57 57 56 54 53 51 52 51 50 50 49 49 50 50 51 51 51 51 51 50 50 50 48 46 46 46 46 45 46 46 47 47 47 48 50 48 49 49 49 50 49 48 47 47 47 46 45 45 45 45 45 45 44
14 12 16 11 5 4 2 6 9 14 16 19 20 22 14 19 18 24 26 28 28 28 29 27 25 25 30 41 45 45 46 47 46 47 47 48 48 49 48 49 52 52 55 57 57 57 56 55 53 52 51 50 49 49 49 50 50 51 51 51 51 52 50 50 50 50 49 47 46 46 46 45 46 46 46 47 47 47 48 49 49 48 48 48 48 47 47 46 46 44 44 44 44 44 44 44 43
11 15 12 15 10 5 1 9 3 9 13 19 21 14 13 14 16 24 28 30 31 37 42 42 41 36 39 45 45 45 45 45 46 48 49 50 51 53 53 54 55 55 55 55 56 57 56 55 53 52 51 50 49 50 50 51 51 51 52 52 52 51 51 51 50 51 49 47 47 46 46 46 46 46 47 47 49 47 48 47 48 47 47 47 48 48 48 48 48 46 46 46 45 44 43 44 42
13 14 13 13 13 18 8 15 15 16 14 13 14 12 18 19 23 29 30 37 39 41 42 44 43 44 44 44 44 44 46 47 49 49 50 51 52 53 54 54 54 55 54 54 55 55 56 54 52 52 51 50 50 51 51 51 53 53 53 52 52 53 53 52 52 51 50 48 47 47 46 46 46 46 47 48 48 47 47 48 48 47 47 47 47 47 47 47 46 45 45 45 45 46 42 42 42
16 5 12 17 20 20 16 15 19 13 15 8 16 16 17 20 21 24 30 37 38 40 41 43 43 44 44 44 45 45 47 48 49 50 51 52 52 52 52 53 53 53 52 52 54 54 55 54 52 52 52 51 52 52 52 53 53 54 53 53 53 54 53 52 52 52 51 49 48 46 47 47 47 47 47 49 47 47 47 48 47 47 47 47 47 47 47 46 46 46 45 45 44 45 43 41 42
6 7 10 18 24 24 19 11 10 6 5 8 15 11 14 16 14 23 30 34 36 38 39 41 42 44 43 44 45 46 46 48 50 51 52 53 52 51 51 51 51 51 50 51 53 54 55 53 53 52 52 52 52 52 53 54 54 54 54 54 54 54 54 53 53 52 51 49 48 47 47 47 47 48 49 51 47 47 47 51 47 47 47 47 48 47 47 47 46 45 45 44 44 45 44 45 44
11 12 13 11 8 7 11 16 4 3 2 2 10 14 15 16 19 21 23 25 29 31 34 38 42 43 43 44 45 46 47 47 48 48 48 49 50 51 51 51 52 52 50 51 53 55 55 54 53 53 53 52 53 54 54 55 56 56 56 55 55 55 55 55 54 52 51 49 48 47 48 48 48 49 50 49 47 47 47 47 46 46 46 47 47 47 47 46 45 45 46 45 45 44 44 44 45
11 9 6 14 18 20 11 13 16 12 0 0 7 13 9 18 19 22 24 26 27 28 29 35 37 41 42 43 45 45 46 46 47 47 46 47 48 49 50 50 51 51 50 51 52 53 53 53 54 53 53 54 54 55 56 55 56 55 55 55 56 56 55 55 53 52 51 50 49 48 48 48 48 50 49 49 47 47 47 46 46 46 46 46 46 46 46 46 45 45 46 45 46 44 43 45 45
8 13 15 13 17 18 14 17 10 13 7 2 5 5 15 21 26 27 28 29 30 30 29 33 37 41 43 43 45 45 46 46 46 46 46 47 48 48 49 49 50 50 51 51 52 52 52 52 53 53 53 54 54 55 55 55 55 55 55 54 55 55 53 52 52 52 51 50 50 49 48 48 50 49 49 49 48 47 47 47 46 48 46 47 46 47 46 46 46 45 46 46 46 45 43 44 47
14 20 14 9 12 7 6 3 15 17 11 4 6 3 15 22 31 31 31 32 33 33 30 33 37 41 42 42 44 45 46 45 45 46 46 47 47 48 49 50 50 51 51 51 51 52 52 52 53 53 53 54 55 55 55 55 54 54 52 53 54 54 53 51 51 51 52 51 50 50 50 49 48 49 49 49 48 48 48 46 46 46 46 47 46 46 46 45 46 46 46 47 46 45 44 44 45